Theta_e
354 352 352 351 347 345 351 350 346 346 348 347 345 344 340 338 334 330 327 330 333 338 345 340 346 353 352 352 354 354 351 354 357 353 352 352 353 350 356 359 358 360 360 361 361 360 358 355 354 354 352 352 353 352 351 352 350 349 348 348 347 345 344 344 345 345 346 346 347 349 350 350 351 351
354 358 352 352 350 352 347 347 350 351 346 346 345 346 346 344 337 333 329 330 336 337 344 343 340 350 351 353 351 353 350 354 354 353 353 353 354 348 355 356 355 356 357 357 358 357 355 354 352 350 349 349 349 349 350 349 348 347 347 346 345 342 341 341 343 344 344 345 346 347 348 349 349 349
358 355 352 349 347 351 353 351 352 351 348 346 347 348 348 346 341 336 333 328 339 343 339 344 347 350 351 352 351 352 355 356 355 353 351 351 354 351 355 354 354 354 353 352 351 352 352 351 349 348 347 348 347 346 347 346 345 344 344 343 342 340 338 339 341 342 343 343 344 345 346 347 347 347
357 354 352 352 347 349 349 349 351 348 350 350 348 348 348 345 344 342 336 333 335 344 345 347 348 347 347 349 352 354 355 356 357 354 356 356 355 353 353 352 351 350 349 348 347 346 348 348 347 347 346 346 345 345 344 342 341 340 340 339 336 336 336 337 339 339 340 341 341 342 343 344 344 344
358 356 354 355 352 350 348 349 349 348 349 347 347 348 348 347 346 344 340 337 337 342 351 347 344 347 354 352 353 349 350 352 354 357 357 355 352 352 350 350 348 347 346 345 344 343 343 343 344 345 344 344 343 343 341 338 337 336 334 332 330 331 333 335 336 337 338 338 339 339 340 341 342 342
361 359 354 355 356 352 350 349 348 347 346 345 345 345 345 345 348 348 344 340 340 340 346 345 349 350 356 350 353 350 350 350 357 354 356 355 354 351 349 348 348 347 345 342 341 340 339 339 340 343 343 342 341 339 336 333 332 331 328 327 327 328 329 331 333 333 334 336 337 337 337 338 339 340
350 348 349 349 352 353 349 349 348 347 346 347 345 345 348 346 346 349 349 345 344 345 347 348 346 347 352 350 351 353 354 357 356 353 355 359 356 354 350 348 348 343 343 341 339 338 337 338 338 339 340 340 337 334 330 327 325 325 325 324 326 326 326 327 329 329 330 331 332 334 334 335 336 338
350 347 346 348 350 349 346 347 347 346 345 344 345 346 348 349 346 348 350 351 348 348 344 348 347 350 349 350 353 355 356 354 353 356 356 357 358 354 353 349 347 343 342 340 339 337 336 335 334 334 334 332 328 326 325 325 324 323 323 323 323 323 323 323 324 325 325 327 328 329 330 331 332 333
347 346 346 348 349 346 344 345 345 345 343 345 344 343 345 350 353 354 352 349 347 345 344 345 348 354 352 352 352 354 350 350 351 353 351 352 356 353 351 349 346 342 340 339 337 335 334 333 332 330 329 328 326 325 325 323 323 321 321 321 321 322 322 322 321 322 322 323 324 324 326 328 329 329
347 347 347 349 350 346 344 343 344 345 344 344 344 342 344 349 351 348 346 345 344 344 343 343 345 346 346 346 348 352 351 347 346 346 347 348 353 350 346 345 344 342 339 336 334 333 333 332 329 330 330 327 326 326 325 324 322 321 319 318 319 320 320 320 320 320 320 320 320 320 323 326 327 328
346 347 348 349 348 345 346 345 343 344 345 345 344 344 344 350 348 346 345 345 343 343 342 344 347 343 343 345 343 348 352 348 345 341 338 341 345 351 348 345 344 342 338 337 336 333 331 331 328 327 326 326 326 326 326 325 324 322 319 317 318 318 318 318 319 319 318 318 318 317 317 320 324 326
347 347 348 349 349 347 347 347 347 346 345 345 344 346 349 351 347 345 344 344 342 341 342 342 342 342 341 341 347 351 344 340 341 343 339 337 339 341 344 349 345 343 339 334 333 334 334 331 330 326 327 328 327 327 327 327 327 325 321 319 320 320 318 318 318 318 318 317 316 316 315 315 319 322
348 348 348 350 351 354 357 359 357 354 352 346 344 347 351 350 347 344 343 343 341 341 341 341 342 342 340 341 342 342 340 338 337 340 341 338 342 343 343 346 351 348 341 337 332 330 329 327 326 325 325 326 328 328 328 328 329 326 322 321 321 320 319 318 318 318 317 317 317 316 316 316 316 319
348 349 350 353 361 362 363 363 362 359 358 357 351 348 351 349 344 343 342 342 342 340 340 340 339 340 339 341 342 342 341 340 342 342 340 338 340 340 342 345 350 353 349 339 333 332 330 326 324 324 322 324 332 326 328 325 327 327 324 322 321 321 320 318 318 317 316 316 317 316 316 316 317 316
348 349 351 350 357 363 364 363 365 362 360 360 360 361 359 355 346 343 343 343 345 343 340 338 339 338 338 340 345 344 344 346 344 342 340 341 340 337 337 334 342 352 344 343 340 338 332 328 324 323 323 324 329 326 325 328 328 325 324 322 321 321 320 320 319 318 316 316 316 316 315 316 317 315
348 348 350 351 352 352 354 353 356 360 362 361 360 357 356 358 359 358 352 349 347 344 340 339 341 340 341 340 340 339 338 337 341 341 342 340 340 336 336 335 336 342 335 340 339 338 340 331 329 326 325 326 327 328 325 327 327 325 323 322 322 321 321 320 321 320 319 318 317 318 317 317 318 317
347 347 348 349 350 351 360 362 356 354 356 359 358 356 356 358 357 348 348 354 356 348 344 342 342 342 341 339 336 336 335 338 337 334 334 336 335 336 337 337 336 324 323 335 333 328 330 334 336 330 331 329 329 329 327 327 327 324 323 323 322 322 321 321 321 320 319 318 316 315 315 315 315 315
346 346 346 347 347 347 349 352 352 352 349 347 347 346 347 348 351 354 350 350 350 355 349 346 341 333 340 336 331 333 335 336 334 332 332 333 332 333 334 329 320 321 323 326 329 330 327 325 332 335 327 332 329 328 324 324 325 324 323 322 322 321 321 320 320 320 319 318 317 315 314 313 313 314
347 346 348 346 346 345 346 350 352 351 347 346 348 348 347 343 335 333 332 333 338 342 338 335 328 327 328 327 329 330 331 332 332 333 331 332 333 335 334 328 325 318 321 321 331 330 329 323 326 329 325 326 324 323 319 320 322 323 322 322 322 321 320 320 320 319 319 318 317 316 314 313 312 312
346 346 347 346 345 345 344 352 352 353 349 346 344 343 344 337 333 332 333 327 336 334 328 327 326 326 330 330 331 331 327 330 331 336 335 329 328 333 329 323 320 318 320 321 322 320 320 320 318 321 328 327 325 325 321 321 321 322 322 322 321 320 319 318 318 318 318 318 317 316 314 312 310 311
347 349 347 344 345 344 343 339 329 342 350 343 342 341 341 337 334 332 331 326 324 323 322 322 323 323 322 323 321 321 323 327 329 324 320 319 323 329 327 323 319 316 318 318 321 321 317 318 317 319 320 326 329 325 323 319 320 320 320 320 319 319 318 318 317 317 317 317 317 316 315 312 311 312
342 345 357 357 348 344 338 327 325 333 347 342 342 341 340 333 329 328 329 328 328 326 324 324 325 326 327 329 328 327 325 325 326 318 316 317 324 322 327 325 324 320 317 317 322 318 315 317 318 319 318 323 325 324 324 324 320 319 318 317 317 317 317 317 316 316 316 316 316 315 314 312 311 313
335 333 340 347 343 339 330 318 320 324 344 342 344 342 339 332 328 327 328 328 327 329 327 328 334 336 334 332 329 331 333 330 328 319 318 319 317 317 320 322 320 316 312 316 322 313 313 313 315 318 314 312 315 322 319 319 318 321 320 321 319 318 318 319 318 315 314 315 315 315 314 312 312 315
332 330 330 332 322 319 318 315 314 317 321 336 341 342 342 333 330 331 332 331 330 331 330 330 334 332 329 325 325 324 326 328 328 322 319 316 316 316 316 320 319 312 312 314 326 314 314 313 313 316 313 309 307 311 313 313 316 321 318 317 315 318 319 319 318 317 315 313 313 313 313 312 312 313
332 331 330 329 325 316 315 313 311 313 320 334 341 339 338 342 338 335 334 336 336 335 335 335 333 329 326 324 322 322 323 325 325 325 324 319 317 317 316 314 315 315 316 320 326 314 313 314 311 309 310 308 308 308 309 311 313 316 320 316 315 316 317 317 319 319 316 312 309 309 309 310 311 311
333 330 329 328 322 314 314 314 314 315 321 330 339 333 327 326 326 334 337 337 333 334 334 332 330 326 323 322 323 323 322 323 327 321 322 323 321 319 317 316 316 317 316 321 326 316 314 313 313 312 309 305 306 312 309 308 310 313 315 315 317 315 317 316 316 315 317 318 315 311 311 312 313 312
332 331 330 331 325 313 310 310 313 316 320 328 321 314 318 321 327 337 333 335 333 332 329 326 323 323 322 322 321 322 321 322 324 321 322 322 323 325 327 327 319 317 317 319 328 321 316 314 322 313 311 311 311 312 310 308 309 313 313 314 316 316 317 315 316 316 315 316 316 313 311 311 313 315
331 328 327 323 310 307 305 309 311 314 323 322 314 318 322 328 335 335 333 331 330 328 326 323 321 321 322 322 321 324 326 325 323 323 323 323 323 322 322 323 328 332 323 323 322 319 320 320 320 320 313 311 309 307 307 310 314 311 311 315 317 318 316 315 313 317 316 315 313 314 312 311 314 315
327 319 310 308 310 312 312 315 318 321 322 319 318 321 328 337 329 329 327 326 325 325 324 323 323 323 322 321 322 325 327 327 324 324 322 325 324 323 323 322 323 323 327 326 321 320 319 316 316 314 311 310 311 312 311 308 309 310 314 314 311 315 315 314 311 311 314 312 310 313 309 309 309 314
317 313 312 314 315 321 325 332 331 330 329 327 329 330 334 330 330 328 327 327 325 324 325 326 323 322 324 322 325 328 324 321 320 320 320 317 320 319 319 317 316 317 319 323 320 319 318 317 315 313 311 312 315 312 310 308 307 309 314 312 314 318 314 310 309 309 312 309 309 311 309 309 310 315
325 327 328 324 320 323 325 330 331 331 331 332 330 329 329 331 330 330 329 327 327 327 325 325 322 321 322 325 326 323 321 321 320 323 323 317 318 319 317 315 314 314 315 316 318 318 317 314 315 314 310 310 312 310 309 310 308 308 310 312 312 306 309 308 308 308 308 309 308 308 308 308 309 317
330 330 330 327 331 330 327 327 325 326 327 329 328 327 327 328 329 331 333 332 325 324 323 324 326 326 325 323 323 324 322 321 322 323 322 320 316 317 315 311 311 311 310 311 311 313 318 314 313 312 311 310 308 309 309 306 305 305 305 308 309 307 310 307 306 307 308 308 306 305 306 306 306 309
328 326 326 327 325 323 324 324 322 321 322 324 326 326 325 325 322 321 317 317 319 323 322 319 317 317 318 319 323 323 319 321 319 319 318 319 314 313 312 310 310 308 306 306 308 309 310 310 315 315 314 313 312 310 304 302 303 304 303 304 306 304 305 306 308 307 308 306 305 305 304 306 308 309
322 324 322 323 322 322 320 320 322 321 320 322 323 323 326 325 322 322 321 320 321 321 319 317 316 314 316 316 317 317 316 314 314 316 317 313 313 311 309 308 307 308 309 306 307 308 309 310 311 311 311 312 313 310 307 304 302 303 303 302 303 302 304 306 305 306 307 305 304 304 304 305 307 307
323 323 323 323 323 323 321 321 320 323 323 324 321 319 321 322 323 322 318 317 320 321 319 317 317 317 315 314 315 315 315 314 312 313 315 314 312 312 311 308 307 308 307 307 307 308 309 307 306 306 305 305 305 306 314 308 303 302 302 302 302 302 303 306 307 306 306 305 305 304 305 304 304 306
322 324 324 323 323 323 323 323 326 324 322 322 319 319 320 319 319 317 316 315 317 317 316 315 316 316 314 313 314 314 314 314 312 311 310 310 310 310 311 310 310 308 306 306 307 308 308 305 304 302 300 300 299 298 300 310 310 304 302 301 302 303 304 304 306 305 304 303 305 303 301 301 302 305
321 323 321 321 322 323 323 322 322 323 324 321 319 319 318 318 317 316 315 316 317 317 315 315 314 315 315 314 314 315 314 311 309 309 308 307 308 308 306 308 308 307 305 306 308 307 306 305 304 302 299 297 296 296 297 303 307 309 305 302 302 303 303 303 302 301 302 302 302 302 301 301 302 303
320 320 321 322 323 324 325 324 325 325 323 321 319 319 317 317 318 317 316 315 315 315 316 314 315 313 312 312 310 309 309 309 308 307 307 305 305 305 305 305 303 304 304 306 308 306 304 305 304 303 299 295 294 294 294 298 300 303 306 304 302 303 304 301 300 299 300 302 301 302 302 301 301 302
319 319 320 321 321 320 323 324 324 321 319 318 318 317 317 316 315 314 314 314 313 312 311 312 311 311 311 310 310 309 306 306 305 306 306 306 305 304 305 305 303 303 303 302 302 302 302 301 303 302 299 296 295 295 297 296 298 302 305 306 303 301 301 300 299 299 299 299 300 301 301 302 304 308
321 324 323 323 319 318 319 320 319 318 318 317 317 317 317 316 315 314 314 315 313 314 311 312 313 310 309 308 307 306 307 306 305 304 305 305 307 307 305 305 303 302 301 301 301 300 300 300 303 303 301 299 300 301 300 301 301 302 303 303 305 304 302 301 299 299 299 299 300 298 297 298 297 299
322 320 320 320 318 319 319 318 318 319 317 317 317 318 315 314 313 312 312 313 315 312 312 310 309 307 306 306 307 306 304 305 305 306 307 305 308 307 306 306 302 302 299 299 299 298 299 299 307 307 305 301 302 301 298 296 296 297 299 301 304 305 306 306 301 299 299 301 298 297 295 295 295 296
318 316 316 316 317 318 318 318 317 317 316 316 315 315 314 315 315 320 318 320 312 313 310 309 307 308 306 306 306 306 303 302 303 305 305 303 302 304 306 305 300 301 298 297 297 298 300 300 304 304 300 300 299 296 295 297 296 297 297 299 301 304 305 305 306 305 303 300 298 296 295 296 296 295
321 317 317 318 317 316 316 316 315 316 316 315 314 314 313 314 314 313 310 311 311 311 309 307 306 306 304 303 303 303 303 303 302 302 303 303 302 301 300 301 301 300 299 299 299 300 300 299 299 299 298 297 298 298 295 298 298 297 297 297 299 300 301 304 304 305 306 306 305 302 300 298 296 293
316 316 315 316 315 315 315 315 315 315 315 315 314 313 313 313 312 311 311 310 309 308 307 306 305 304 303 303 303 302 302 301 301 301 302 303 303 301 300 301 302 299 298 299 297 298 298 297 298 299 296 295 297 296 297 297 297 299 298 298 299 298 298 300 302 303 304 305 305 304 305 305 306 305
317 317 316 315 314 314 314 313 313 313 313 314 312 312 313 310 312 310 310 309 308 308 307 305 304 303 303 304 302 302 303 308 303 302 302 301 300 301 300 300 299 298 297 297 296 295 296 295 296 297 296 297 298 297 299 300 300 300 299 298 298 299 298 300 299 299 298 299 302 305 305 305 306 306
Wind_Speed
2 2 2 5 5 3 3 2 3 3 2 3 3 4 5 4 3 1 2 3 2 2 0 0 2 1 1 3 2 3 3 4 5 3 3 3 3 5 8 7 5 5 4 4 3 5 6 5 5 5 6 6 7 7 7 8 9 9 9 10 11 12 12 12 12 12 12 12 11 11 11 11 13 14
2 0 1 3 3 3 4 4 3 3 4 3 2 3 3 4 5 4 3 5 3 4 2 4 3 2 3 3 3 2 4 6 7 5 5 5 3 8 10 9 7 7 7 5 5 6 6 6 6 6 6 7 7 7 7 8 8 9 9 10 11 11 11 11 11 12 12 12 12 11 13 14 14 13
1 1 1 2 3 2 3 3 2 2 4 4 5 4 4 4 5 7 4 1 4 3 2 3 2 2 3 2 2 4 3 4 5 5 5 6 3 8 7 9 8 8 8 6 6 6 6 6 6 6 6 6 7 7 7 8 8 9 9 10 10 10 10 10 11 11 11 11 11 11 12 13 13 12
1 1 0 2 4 2 2 1 0 1 2 4 4 4 4 3 4 6 4 4 7 2 2 3 6 6 3 4 4 4 4 3 4 5 7 2 6 5 3 7 9 8 8 7 6 6 6 6 6 7 6 6 6 7 7 7 8 9 9 9 10 10 10 10 10 10 10 10 10 11 12 12 12 12
2 2 2 2 2 2 1 0 1 2 0 1 1 2 3 4 4 5 4 5 6 5 1 2 3 5 4 3 1 3 3 3 3 3 1 2 4 4 4 3 6 8 8 7 7 7 7 6 6 6 6 5 5 6 6 7 7 8 9 9 9 9 9 10 10 10 10 10 10 10 11 12 12 12
3 2 3 2 0 1 2 2 0 2 2 1 3 4 2 3 5 5 5 6 4 5 1 3 4 4 0 2 0 2 4 5 4 5 2 1 2 4 4 4 4 7 7 7 7 6 7 6 6 5 5 5 5 5 6 6 7 7 8 8 8 9 9 10 10 10 10 11 11 11 11 12 12 12
5 3 3 4 1 3 2 2 3 4 4 3 4 5 4 5 5 6 6 4 5 6 5 2 2 2 2 1 2 3 3 3 3 4 4 1 3 3 4 4 3 5 6 6 6 6 6 6 6 5 5 4 5 5 6 6 6 6 6 7 7 8 8 9 10 10 10 10 11 11 11 11 11 11
0 1 1 2 2 3 4 3 3 3 3 4 4 5 4 4 5 5 6 6 5 4 5 3 4 3 2 1 1 2 2 2 3 3 3 4 1 3 3 3 3 4 6 6 6 6 6 6 6 5 4 4 5 5 5 6 6 5 5 6 6 6 7 8 8 9 9 9 9 9 10 10 10 10
7 6 5 6 5 4 5 4 5 5 6 5 4 5 4 4 5 4 5 5 3 3 5 4 2 1 1 1 1 2 3 4 3 2 3 2 2 2 3 3 3 4 5 4 5 5 5 5 5 5 5 4 4 5 5 6 5 4 4 5 5 6 6 7 7 7 8 8 8 9 9 9 9 9
5 3 4 5 7 8 8 8 6 4 4 2 4 4 4 4 3 4 3 2 2 3 4 3 3 1 1 2 2 2 1 0 2 3 3 2 2 2 3 2 2 2 2 2 2 3 3 4 5 4 4 4 4 4 4 5 4 4 4 4 4 4 5 5 6 6 7 7 8 8 8 9 9 8
4 5 5 5 6 6 7 7 7 6 4 5 6 7 6 5 4 4 4 3 3 4 3 3 3 3 3 2 3 2 1 1 1 1 2 0 2 1 3 2 2 3 3 2 2 2 2 3 2 3 2 3 2 2 4 3 3 3 2 2 2 3 4 4 4 5 5 6 6 7 8 8 8 8
6 7 7 7 6 6 5 5 6 8 8 7 8 7 5 5 5 5 4 4 4 4 3 4 4 3 3 1 3 1 0 1 2 1 1 1 1 1 1 3 5 4 4 4 3 2 3 3 3 3 1 2 2 2 2 3 3 3 1 1 2 1 1 2 2 3 3 4 4 5 6 6 6 7
5 6 6 6 6 6 10 12 10 9 8 7 7 6 5 5 5 4 3 4 3 2 2 4 3 3 4 4 2 2 2 3 2 1 1 1 3 3 3 4 4 5 5 4 4 4 5 4 4 3 3 3 4 4 4 3 4 3 2 2 3 3 2 0 1 1 1 2 3 4 4 4 5 5
6 6 6 5 11 12 13 13 12 11 11 9 6 3 2 1 1 3 4 4 4 4 4 6 5 5 5 4 3 3 2 1 1 1 0 1 3 2 4 3 3 4 4 4 4 4 4 5 3 3 5 4 5 3 4 4 4 4 3 3 4 4 3 2 2 1 0 1 1 2 2 2 3 4
6 5 4 3 6 8 9 8 11 11 10 11 11 9 7 9 9 8 6 5 5 5 6 3 3 4 3 3 2 2 1 1 2 2 3 3 1 1 1 2 2 4 3 2 3 4 4 4 5 5 5 5 5 4 5 6 7 6 5 4 5 6 5 4 3 3 2 1 1 2 2 3 3 3
4 5 5 5 4 3 3 1 2 5 9 10 10 10 11 12 17 12 6 5 5 5 5 4 4 2 3 1 1 1 1 2 1 1 1 1 2 2 2 2 2 1 2 1 1 5 2 5 5 5 6 5 5 6 6 8 8 7 6 5 6 6 5 5 5 4 3 3 3 2 2 2 3 3
5 4 4 5 3 2 7 6 5 4 2 6 7 7 9 10 9 7 7 5 6 5 5 4 3 3 2 2 0 1 1 1 0 2 3 2 2 1 2 3 0 4 5 2 3 2 2 2 4 6 4 5 4 5 7 9 8 7 6 5 7 7 6 5 5 5 5 4 4 3 3 3 3 4
5 5 5 4 4 3 3 1 3 3 4 2 0 1 2 3 6 4 2 3 2 5 6 5 5 1 1 2 0 0 0 0 1 1 2 2 3 3 2 1 3 2 4 1 2 2 5 6 3 3 1 2 5 4 5 9 8 7 5 5 6 7 6 6 6 6 5 5 5 5 4 4 4 4
5 4 5 4 4 3 3 3 3 3 3 3 1 2 3 1 2 2 3 3 2 2 4 5 6 4 4 3 2 1 1 0 1 2 3 3 2 1 3 3 2 4 6 5 1 1 1 5 3 3 1 1 1 1 3 1 1 2 1 3 6 8 8 7 6 5 6 6 5 7 7 6 5 5
3 3 4 4 3 3 2 3 5 5 2 3 1 1 1 1 4 7 8 4 2 4 5 6 6 4 5 5 5 3 3 2 2 1 1 2 2 3 3 2 3 4 4 5 3 4 1 5 4 3 2 3 3 2 3 3 1 1 2 5 7 8 9 8 7 7 6 6 7 7 8 8 6 6
2 2 2 2 3 2 2 5 6 5 4 2 3 4 3 2 4 3 3 5 8 9 11 12 11 11 10 10 10 11 10 6 2 3 4 4 4 1 3 1 2 3 3 4 4 2 3 4 3 3 4 3 6 6 4 1 2 4 5 6 7 8 10 10 9 8 8 8 8 8 8 9 7 8
1 1 3 6 4 3 4 6 6 7 6 5 4 4 5 4 5 4 3 2 4 6 9 10 10 10 10 10 10 11 11 11 8 6 4 3 1 3 1 3 1 1 3 5 4 3 1 3 4 2 2 2 3 3 4 5 4 0 4 6 7 8 10 11 12 11 10 9 9 9 8 9 5 4
2 2 6 7 5 4 4 5 3 3 6 6 7 7 5 4 5 6 5 5 5 3 4 3 4 4 6 5 5 6 11 11 8 6 4 3 5 4 2 2 1 1 4 5 4 3 3 4 5 3 3 2 1 2 4 4 4 5 6 6 5 8 11 11 9 8 9 10 11 10 8 9 3 3
1 3 3 4 7 7 5 5 5 5 5 2 2 4 3 6 7 4 3 2 2 3 4 4 3 5 5 5 5 4 5 6 5 5 4 4 5 5 5 5 4 3 1 3 5 4 0 2 3 5 2 1 3 5 5 5 4 5 5 6 6 8 9 9 9 11 8 6 8 8 8 5 5 2
2 1 1 2 6 7 7 7 7 6 5 3 2 6 4 2 4 4 3 3 3 3 2 1 4 5 5 5 4 4 4 5 5 4 4 3 3 5 5 5 4 3 1 3 5 4 2 1 2 2 5 3 1 3 4 3 4 6 6 6 6 7 6 6 5 7 10 10 7 4 3 2 2 2
2 2 2 2 4 7 8 6 6 6 5 5 3 0 8 10 11 6 2 4 5 2 2 2 4 5 5 5 5 4 5 5 5 5 5 4 3 2 3 5 4 3 0 1 1 2 3 3 3 3 2 3 3 1 4 4 4 6 6 6 6 6 5 5 6 7 6 5 6 5 4 4 1 3
5 2 3 4 7 8 9 10 10 11 9 8 6 9 11 12 13 8 5 4 4 2 3 5 5 4 4 4 4 4 5 5 4 5 5 4 4 3 3 1 2 3 3 2 1 3 3 1 1 4 2 0 1 3 1 3 4 4 7 6 6 6 6 6 7 7 7 6 6 9 8 8 9 9
2 4 3 3 6 9 11 11 11 10 8 5 8 12 12 12 11 7 6 6 4 4 4 4 4 4 3 3 4 4 4 4 3 4 4 4 4 5 5 6 5 1 2 4 3 3 4 3 1 1 2 2 2 3 6 2 3 3 5 5 2 5 5 5 5 5 5 6 6 6 6 7 7 7
3 5 6 7 7 7 8 9 9 7 6 7 11 12 13 10 7 7 7 6 6 5 4 4 4 4 3 4 3 3 4 4 4 3 4 4 4 4 5 8 9 9 7 6 7 6 4 3 2 1 2 1 2 2 2 4 3 4 4 6 5 3 4 5 5 5 5 5 5 5 4 4 5 4
8 6 6 6 4 5 5 4 3 3 3 7 10 11 10 7 7 7 6 5 6 5 4 2 2 3 3 4 3 3 4 5 5 3 3 5 6 6 6 8 9 8 8 7 7 6 6 4 2 2 3 2 1 3 3 4 5 6 5 5 5 2 4 6 5 4 4 5 5 4 5 3 3 2
3 3 4 4 5 4 6 5 4 3 2 3 5 5 5 5 6 7 6 6 6 4 4 3 2 4 3 1 3 3 3 3 3 3 2 4 5 5 5 6 6 6 6 5 5 5 4 4 3 3 3 3 2 2 3 3 5 6 6 5 5 4 5 5 5 6 5 5 4 4 4 5 5 3
2 3 3 3 2 2 3 3 2 2 3 3 3 4 4 4 3 4 6 6 4 3 3 5 4 4 3 4 4 2 3 3 3 3 3 3 5 6 5 5 6 5 5 5 4 4 5 4 5 4 3 1 1 2 3 6 5 4 4 5 5 4 4 5 5 6 5 4 5 5 5 4 3 4
3 3 3 3 3 4 2 2 2 3 4 5 4 4 3 3 4 4 5 5 5 5 6 6 5 5 5 5 3 4 5 5 5 4 5 5 6 5 6 6 5 4 6 7 6 7 7 7 5 5 5 5 3 4 5 6 5 4 5 5 4 4 5 5 5 5 5 4 5 5 5 6 5 4
4 3 3 3 3 4 3 3 2 4 4 4 4 3 3 3 4 4 5 5 6 6 6 6 6 5 5 5 5 5 4 4 5 5 5 5 5 6 6 6 5 5 5 6 7 7 7 7 7 6 6 5 4 5 6 6 5 5 5 5 5 6 6 5 6 5 4 4 4 5 5 6 6 6
3 2 3 2 2 2 2 1 1 1 2 3 4 3 4 2 3 5 6 6 5 5 6 5 5 5 5 5 4 5 4 4 4 5 5 5 6 6 5 5 5 5 5 5 6 5 5 6 6 5 5 6 6 3 2 4 6 7 6 6 5 6 7 6 6 7 6 6 5 6 6 6 6 7
2 3 4 3 2 0 0 1 0 0 1 3 4 5 4 3 2 6 5 4 6 5 5 5 5 5 5 5 4 4 4 5 5 5 5 5 5 4 4 4 4 5 5 5 4 4 4 5 5 6 7 7 6 7 6 7 8 5 6 6 6 6 6 6 5 5 6 6 6 5 5 6 7 7
2 2 3 2 2 2 2 2 1 1 0 3 4 5 6 5 3 5 4 5 6 5 5 6 5 5 5 4 4 4 4 5 5 5 5 4 4 4 4 4 4 4 5 4 4 4 4 5 5 6 6 6 6 6 7 4 8 9 1 4 6 6 6 6 6 6 6 6 6 6 6 6 7 8
2 3 4 4 3 2 3 2 3 3 1 4 5 5 5 5 5 4 3 5 6 5 5 5 5 4 5 4 6 5 5 5 5 5 4 5 5 3 3 3 4 4 3 3 3 4 4 4 3 4 3 4 5 6 7 5 4 7 8 4 4 7 6 6 7 7 7 6 6 6 6 7 7 7
1 2 3 4 4 1 3 4 4 3 5 6 6 6 6 5 5 4 4 5 4 5 5 5 5 4 5 5 4 5 5 5 5 5 3 3 3 3 4 4 4 3 4 5 5 5 5 6 4 3 3 5 5 5 5 5 5 6 9 12 6 6 7 6 6 6 6 7 7 6 5 4 6 8
1 1 2 1 2 3 4 4 5 5 5 5 6 5 6 6 5 5 5 5 5 4 5 5 5 5 5 5 6 6 6 5 4 4 3 3 3 3 3 3 2 2 3 3 4 5 6 6 6 6 5 4 4 5 4 4 4 4 4 8 13 8 4 5 6 6 7 7 6 5 6 6 6 6
2 3 3 3 3 4 5 5 5 5 5 5 5 4 4 5 5 5 5 5 4 5 5 5 4 4 5 5 5 6 6 4 4 3 2 2 2 2 2 2 2 1 3 3 4 5 5 4 5 10 5 3 3 3 5 6 6 6 6 6 9 11 11 9 6 5 5 5 4 4 5 6 5 5
4 4 3 3 3 4 4 5 5 5 5 5 5 5 4 4 3 4 3 3 3 4 5 5 5 5 4 4 5 5 5 4 3 2 2 3 3 1 1 1 2 1 4 4 4 3 2 2 3 4 3 5 5 6 5 6 6 6 6 6 7 8 9 12 14 12 8 3 2 4 5 6 3 4
3 5 5 4 4 4 5 5 5 5 5 5 5 4 4 4 3 3 3 4 5 6 6 5 5 5 5 5 5 5 5 3 3 3 3 2 2 1 0 1 0 1 3 3 1 1 3 3 3 4 5 5 3 3 5 5 5 6 6 6 6 6 7 9 11 12 12 6 2 1 2 4 5 6
5 5 5 6 5 5 4 5 5 4 5 5 4 4 5 5 4 2 3 4 6 6 5 5 5 5 5 5 5 3 4 4 4 3 2 1 0 0 0 1 2 3 3 2 2 3 3 4 3 3 4 5 3 3 5 5 6 6 6 6 6 6 7 6 6 7 7 7 8 8 8 8 7 9
5 5 6 5 6 5 5 5 5 5 5 4 4 3 2 3 3 4 4 5 5 5 5 5 5 5 4 3 4 4 3 3 3 1 1 2 1 1 1 2 3 2 2 1 2 2 3 3 4 3 2 4 3 3 5 5 7 6 7 7 8 7 7 6 6 7 6 7 8 11 11 12 12 12
Wind_Direction
274 292 221 207 201 181 130 140 166 149 119 128 141 142 149 152 133 241 305 283 256 302 283 348 290 215 224 263 273 278 267 277 311 305 288 248 226 168 155 169 176 143 126 118 118 110 103 92 77 63 55 49 46 44 42 38 36 34 33 31 27 24 24 24 31 34 38 38 33 39 43 45 49 51
232 245 120 175 198 171 155 163 154 130 135 115 104 113 148 155 163 172 189 271 236 266 264 191 255 309 325 304 310 285 292 292 296 299 287 282 239 158 160 162 162 151 142 146 139 123 113 102 88 72 59 51 47 45 44 41 39 36 35 35 33 30 25 24 33 40 41 43 44 40 46 48 48 52
239 334 180 202 222 208 161 134 130 161 135 151 152 152 158 188 158 156 147 200 284 204 249 285 258 281 302 306 307 299 291 297 291 290 298 291 223 151 165 160 162 154 144 145 139 128 120 108 95 85 72 63 58 54 50 49 44 39 36 33 34 33 28 26 33 37 41 45 43 39 40 41 44 43
295 342 151 215 222 199 102 94 154 188 187 168 166 163 158 180 173 148 153 187 263 277 258 287 297 295 289 308 297 304 313 326 339 314 291 274 130 138 146 163 158 153 144 148 142 137 123 115 103 93 83 73 67 63 57 54 49 43 36 31 29 27 29 29 32 38 41 42 38 39 44 44 44 44
247 219 243 213 237 123 112 182 192 207 337 351 292 211 164 165 176 162 166 194 250 291 262 283 281 312 327 314 19 328 324 314 304 293 201 157 139 138 146 146 158 150 149 153 148 138 129 125 115 106 96 86 79 71 65 56 52 46 40 34 25 17 23 29 28 31 37 40 40 38 41 47 46 44
251 278 303 293 98 134 127 185 165 42 62 27 311 296 244 205 193 199 175 212 215 257 313 317 303 278 303 290 311 345 333 326 322 331 330 174 148 149 141 146 162 162 153 153 149 139 134 129 116 111 110 107 93 84 71 63 57 53 47 38 30 21 23 29 30 31 31 35 38 38 38 43 45 44
20 15 43 47 125 178 114 111 140 164 162 173 202 240 236 237 225 205 208 187 225 247 265 196 289 296 326 264 296 335 327 313 315 312 333 295 169 133 149 147 149 160 155 154 152 146 142 130 121 118 118 113 102 90 78 67 55 48 44 42 35 32 26 25 32 33 31 34 36 39 42 44 44 46
91 184 115 102 114 147 139 164 176 208 194 202 222 221 216 226 237 216 207 219 226 238 241 251 202 249 249 305 353 311 324 338 338 345 319 360 109 139 142 137 146 156 156 161 158 154 149 134 129 131 122 104 99 95 91 82 65 51 43 43 39 34 33 30 30 34 31 28 31 34 38 41 42 40
195 205 202 168 166 158 164 198 199 195 211 222 214 221 223 221 230 205 196 202 197 199 219 249 268 261 278 264 319 343 339 341 341 353 353 339 34 94 96 94 99 123 148 145 150 155 152 148 146 146 139 128 123 117 102 92 80 63 48 44 45 42 37 36 33 27 23 17 20 26 29 30 31 31
195 191 191 191 182 180 177 193 204 205 218 240 259 257 245 235 199 188 195 181 198 217 234 226 282 323 278 325 293 248 180 4 336 331 332 355 50 107 103 102 124 153 159 158 150 156 159 165 166 156 148 141 135 129 116 105 101 77 50 43 48 49 47 44 38 34 32 29 26 26 22 25 28 31
179 195 204 199 193 201 204 188 189 189 201 210 229 239 245 238 201 198 192 174 195 208 222 249 245 268 280 223 265 273 164 116 159 216 350 351 319 88 150 137 169 171 163 156 165 180 193 165 162 162 156 153 158 164 129 122 108 101 80 23 39 59 58 58 53 44 38 36 34 31 29 26 25 30
191 200 208 207 207 209 209 196 192 184 192 205 226 233 233 228 207 208 191 185 195 209 222 223 236 239 253 292 262 284 35 41 336 255 172 203 279 298 301 198 174 188 171 168 171 156 136 135 111 143 208 202 206 199 154 150 147 131 118 289 289 320 67 77 60 51 46 42 39 35 31 29 27 26
196 206 210 207 200 210 209 208 199 195 188 184 210 229 217 211 208 207 207 195 188 213 213 249 253 252 247 253 235 240 217 191 214 222 120 269 265 270 294 286 217 179 178 182 175 195 185 173 187 189 208 214 200 215 198 193 193 158 171 250 261 247 241 229 93 70 35 29 32 32 27 24 25 24
205 211 206 208 213 215 222 222 218 206 204 208 214 231 234 301 350 272 208 201 204 196 210 226 214 222 239 241 228 207 229 208 126 94 167 246 289 310 278 280 244 195 160 161 204 226 186 179 189 197 219 220 197 193 199 200 190 175 188 230 252 244 223 224 223 207 180 14 354 359 1 360 9 14
203 216 219 214 231 227 229 233 229 228 224 222 220 239 236 201 199 220 216 215 199 198 213 223 212 220 239 269 237 214 246 184 187 201 180 219 232 247 310 298 313 72 39 314 227 250 205 178 200 210 224 208 194 198 209 200 193 177 188 225 243 243 232 224 229 229 216 223 256 290 304 314 321 328
201 200 211 223 217 233 237 224 285 246 226 226 226 236 250 236 224 217 202 204 203 202 208 212 218 194 224 208 68 12 18 332 329 330 234 203 227 260 247 226 235 3 41 168 2 314 229 191 208 216 224 208 195 208 199 198 193 184 191 219 243 245 242 236 239 238 224 218 225 237 267 303 310 310
206 198 204 219 220 222 228 214 195 199 213 222 199 220 237 239 247 247 231 225 215 181 193 197 213 208 205 142 91 27 326 263 22 354 19 4 346 294 286 258 334 334 329 175 161 214 300 205 226 232 215 195 198 199 190 195 194 184 194 220 244 250 248 254 259 260 256 241 231 231 253 280 293 299
203 206 201 210 227 203 220 150 146 151 155 135 32 326 312 323 282 195 142 48 318 201 192 189 185 246 202 136 153 336 326 55 28 350 328 308 315 307 276 106 101 17 4 67 124 31 356 340 274 256 302 214 187 189 183 189 188 178 192 230 254 258 254 256 266 274 275 282 285 278 271 272 283 292
203 205 203 202 220 224 201 167 155 166 177 152 149 210 228 304 325 344 14 359 346 56 95 117 115 114 96 109 99 5 359 21 237 196 204 231 243 246 102 102 93 39 21 5 94 95 334 331 17 8 341 27 90 51 74 105 133 157 220 278 281 277 273 267 265 272 285 289 291 292 288 287 301 316
207 196 193 198 207 220 214 164 148 156 117 109 141 277 280 10 25 11 353 325 35 105 118 123 126 124 106 98 87 64 37 352 302 274 163 49 18 123 131 59 346 29 350 13 43 104 33 358 10 338 8 50 32 26 60 86 121 331 306 283 275 279 281 284 281 277 276 279 285 287 290 297 308 318
204 201 189 194 204 169 166 121 126 146 149 159 176 210 231 110 77 54 311 31 74 98 103 108 112 115 111 101 87 71 57 42 30 82 48 5 337 81 133 125 66 25 335 10 20 105 48 7 1 318 358 27 60 43 17 20 169 210 254 272 278 280 280 276 271 263 259 261 266 273 287 296 321 344
85 306 263 216 173 150 119 102 132 169 190 210 192 205 225 171 128 163 199 124 68 80 99 109 117 115 105 92 81 73 64 53 49 78 79 294 4 61 64 145 144 190 12 10 353 82 353 316 356 354 327 45 71 64 43 35 18 287 259 277 282 282 281 278 273 263 253 249 252 258 269 283 322 339
53 21 32 48 78 101 97 84 90 193 214 208 209 198 186 163 169 189 168 133 125 125 119 108 114 107 91 72 63 62 62 62 59 66 82 54 79 82 49 85 109 27 347 341 15 87 347 22 4 3 27 9 290 47 33 21 18 21 13 360 345 338 340 331 313 288 260 241 242 245 254 268 342 336
59 47 41 50 44 55 68 59 33 5 352 242 224 190 215 179 197 169 118 105 149 168 141 138 109 91 71 67 56 46 43 45 47 48 58 76 91 87 74 53 67 107 343 309 13 100 20 40 27 1 58 93 351 322 358 356 4 10 8 358 354 345 343 342 341 347 340 275 250 251 260 310 19 340
145 128 81 77 57 46 44 39 36 20 355 310 177 162 216 216 124 118 138 182 131 17 1 69 96 87 74 66 59 50 47 46 36 38 31 37 81 95 88 82 70 71 310 290 4 92 77 38 34 11 23 64 66 347 310 330 327 3 358 356 347 341 348 351 7 25 26 27 20 23 11 1 244 228
152 183 150 90 61 64 62 68 73 57 52 58 72 219 192 181 153 158 112 57 70 56 80 76 85 85 71 63 56 53 53 44 48 44 47 45 35 44 118 116 117 119 257 271 52 104 107 18 35 48 14 51 317 1 333 332 309 332 342 348 357 350 2 5 22 32 31 38 41 46 38 25 360 244
179 151 114 86 80 77 69 57 49 42 40 62 82 98 115 136 140 127 107 104 91 63 79 84 84 83 81 77 69 61 58 51 50 52 44 43 42 38 31 50 148 157 202 174 77 105 103 116 37 77 61 116 347 326 353 341 326 333 340 359 1 9 13 20 24 19 16 14 15 15 21 15 3 351
124 107 88 95 82 73 74 77 68 55 44 59 94 108 111 112 114 115 106 96 100 91 70 80 91 86 83 87 70 57 53 53 55 57 44 32 31 29 29 30 36 40 120 98 87 82 90 95 63 69 126 94 47 352 332 273 283 314 334 332 33 27 22 26 20 17 7 2 3 3 7 0 348 355
74 89 101 101 89 82 79 83 89 78 60 69 84 90 93 94 91 93 97 99 99 95 96 88 96 101 104 110 91 74 64 46 36 40 19 21 38 35 40 46 43 37 49 45 34 31 43 86 106 58 57 102 30 301 304 296 306 321 349 350 353 357 25 8 20 5 355 359 356 351 347 318 332 323
79 73 70 68 71 80 70 72 81 96 95 97 102 100 98 96 95 93 97 109 112 131 128 106 101 106 97 82 71 75 65 55 36 20 23 23 25 32 39 48 40 39 45 49 50 40 38 43 50 25 4 335 269 310 319 345 338 342 358 359 325 303 36 1 353 345 359 350 339 332 316 314 303 352
64 68 57 31 9 28 30 53 67 68 75 69 78 81 91 98 112 122 142 147 137 138 146 154 94 49 45 48 67 60 70 68 25 1 25 47 35 35 51 71 49 40 24 31 30 26 30 17 7 14 4 332 342 342 340 40 31 6 3 3 25 14 317 339 343 350 345 335 324 321 330 350 352 11
80 68 56 29 11 32 46 59 52 40 36 51 65 73 80 103 118 120 113 103 112 105 80 69 75 83 82 88 91 89 69 56 25 360 17 37 48 37 44 46 30 26 12 2 4 2 14 11 1 356 18 48 48 347 65 70 57 20 357 352 349 329 330 336 332 328 330 332 348 343 319 316 320 316
54 54 40 44 51 48 53 52 38 36 40 41 50 81 85 78 78 86 96 103 97 95 94 89 91 99 98 89 85 64 49 31 21 2 43 31 56 48 60 69 47 28 13 358 357 1 4 356 358 18 34 44 49 74 60 35 15 15 358 335 338 330 324 322 324 316 321 339 329 316 316 311 302 281
58 34 44 54 77 67 60 59 48 53 58 48 49 61 74 79 86 86 85 91 99 102 109 114 103 97 93 83 77 80 78 56 45 41 61 54 56 66 56 56 34 18 21 4 1 0 357 2 5 17 32 29 30 57 68 48 7 351 343 331 340 335 319 319 315 310 313 292 286 318 320 319 309 300
54 29 34 8 43 77 88 73 61 86 93 97 85 85 80 49 92 88 93 108 110 107 107 99 100 100 97 104 96 87 81 76 56 50 44 53 53 55 57 56 30 18 15 11 15 6 11 14 13 17 13 15 8 334 38 62 14 346 343 341 338 332 324 326 327 327 331 325 342 333 318 311 306 301
32 45 28 4 333 124 142 216 224 213 110 119 123 123 112 101 108 113 117 124 109 107 99 100 96 93 92 96 96 93 86 79 68 65 57 52 57 53 51 44 32 17 18 27 22 15 21 29 28 30 20 6 6 354 341 0 351 337 343 325 326 330 319 322 323 319 328 331 327 328 312 304 299 299
30 28 25 357 306 213 210 213 185 241 224 132 140 147 142 141 133 115 130 122 108 110 117 114 111 113 111 100 87 74 70 77 75 64 65 55 62 59 51 28 27 23 31 29 31 25 22 32 26 40 28 6 2 339 322 329 320 314 291 304 319 319 319 324 329 333 323 320 314 313 296 299 303 303
353 353 2 345 323 270 250 221 191 214 151 137 145 132 126 128 121 118 126 115 118 117 115 109 107 99 92 90 92 84 75 75 82 74 62 56 55 41 40 36 37 27 36 35 23 24 14 30 36 38 46 15 341 329 327 329 335 323 339 359 328 316 324 335 337 333 321 318 312 305 315 316 311 312
7 335 333 338 331 295 202 198 173 139 125 135 132 133 128 124 121 125 122 116 113 111 106 101 101 102 100 97 96 100 95 83 75 76 67 53 57 47 34 45 49 17 35 22 9 8 12 18 9 358 1 4 346 312 301 313 313 308 320 329 341 344 347 348 332 325 322 323 324 324 308 271 270 286
317 333 304 332 34 64 67 76 95 115 123 125 126 131 134 135 135 126 116 117 116 113 112 117 111 100 95 101 98 84 79 90 97 83 67 53 41 59 68 70 74 52 50 31 16 4 11 8 360 6 12 348 310 284 251 254 252 286 316 332 343 352 336 348 339 331 324 322 329 340 330 337 352 338
356 32 24 68 90 90 93 84 95 100 102 104 107 107 107 117 116 120 129 134 128 123 111 107 106 105 107 100 100 104 101 91 90 84 67 53 57 75 89 82 67 52 62 21 21 21 18 324 3 25 21 353 331 351 3 356 343 334 331 324 323 326 330 335 324 321 307 315 317 316 335 334 319 333
86 89 68 67 98 98 104 109 103 103 101 103 101 102 100 100 114 128 129 122 112 108 107 107 107 105 101 101 103 101 108 115 105 81 74 85 85 59 45 79 82 47 56 31 31 15 325 328 3 8 6 4 9 15 349 328 322 319 315 309 309 314 319 320 319 317 318 294 336 355 329 324 334 334
102 93 89 83 84 86 92 100 101 104 104 99 103 105 107 107 114 118 112 104 100 105 111 109 108 104 103 99 110 121 123 119 109 100 100 107 128 125 336 343 103 64 53 63 39 30 359 352 358 8 0 7 348 346 318 309 308 302 303 304 303 306 305 308 306 306 312 303 234 246 281 301 322 323
104 97 95 102 97 91 81 86 93 98 111 118 123 126 141 151 156 138 105 102 108 115 118 119 121 120 125 128 123 116 120 131 132 122 119 154 176 165 102 93 67 69 71 69 31 2 343 345 342 348 357 330 321 324 312 308 307 308 305 303 305 312 310 310 305 308 309 302 300 299 302 298 268 260
137 130 123 113 108 100 98 99 99 104 107 110 108 108 103 90 88 78 69 83 96 108 117 124 125 125 128 130 120 123 145 138 130 112 92 60 42 64 96 79 83 89 74 50 62 342 324 320 317 338 322 309 314 302 299 304 310 311 311 311 314 311 309 309 315 314 312 310 301 301 307 310 310 308